KAITUO 1B
1 40912U 15049P   18011.78715606 +.00000966 +00000-0 +50207-4 0  9995
2 40912 097.4512 021.3698 0014819 190.0795 256.8868 15.18363334127931
TIANWANG 1C (TW-1C)
1 40926U 15051B   18012.40176623  .00006887  00000-0  13984-3 0  9991
2 40926  97.2048  55.5655 0012121 121.9176   3.7593 15.46584123129219
TIANWANG 1B (TW-1B)
1 40927U 15051C   18012.49281968  .00006719  00000-0  14203-3 0  9999
2 40927  97.2140  55.5745 0011732 131.7302 336.2146 15.45415213129153
TIANWANG 1A (TW-1A)
1 40928U 15051D   18011.82157089 +.00002757 +00000-0 +76319-4 0  9997
2 40928 097.2044 048.8283 0012504 157.8418 288.8738 15.37764921128741
LAPAN A2
1 40931U 15052B   18010.61101470  .00001428  00000-0  10994-3 0  9991
2 40931   6.0066 193.5720 0014941 297.7404  62.3471 14.76563171123679
LQSAT
1 40958U 15057A   18012.40510204  .00000018  00000-0  10580-4 0  9999
2 40958  97.9584  88.8437 0019434 114.0104 246.3144 14.73011354121917
CHUBUSAT 2
1 41338U 16012B   18011.99469837  .00000304  00000-0  17091-4 0  9994
2 41338  31.0020 225.9519 0013980 326.0747  33.8993 14.99902897104367
CHUBUSAT 3
1 41339U 16012C   18011.96170277  .00000257  00000-0  13287-4 0  9999
2 41339  31.0085 224.9821 0013755 332.7299  27.2401 15.00095414104340
OUFTI-1
1 41458U 16025C   18011.86689837 +.00001500 +00000-0 +83385-4 0  9999
2 41458 098.1594 066.2354 0169793 312.0361 046.6495 15.04145910093946
E-STAR-2
1 41459U 16025D   18011.71487223 +.00000587 +00000-0 +35769-4 0  9996
2 41459 098.1578 065.9728 0170708 313.0414 045.6602 15.03911376093909
AAUSAT 4
1 41460U 16025E   18012.49693446  .00001865  00000-0  10194-3 0  9994
2 41460  98.1518  67.0798 0163010 307.3173  51.3310 15.05149232 94065
NUSAT 1
1 41557U 16033B   18012.18852529  .00001225  00000-0  47637-4 0  9998
2 41557  97.4484  96.6429 0013662 356.1164   3.9967 15.27905349 90334
BEESAT 4
1 41619U 16040W   18012.10975529  .00001329  00000-0  61769-4 0  9990
2 41619  97.4372  77.2846 0013138  61.8133 298.4429 15.21652757 74355
PRATHAM
1 41783U 16059A   18011.78012697  .00000032  00000-0  15701-4 0  9998
2 41783  98.1408  75.6907 0032775 224.9976 134.8569 14.62893403 69092
ALSAT 1N
1 41789U 16059G   18012.41539678  .00000051  00000-0  18930-4 0  9996
2 41789  98.1409  77.2274 0027432 215.5914 144.3464 14.64118310 69220
NAYIF 1
1 42017U 17008BX  18011.91274116 +.00001489 +00000-0 +64553-4 0  9991
2 42017 097.4699 077.7769 0005994 195.7337 164.3715 15.23934776050262
LILACSAT-1
1 42725U 98067ME  18012.51591639  .00013368  00000-0  15170-3 0  9999
2 42725  51.6387  67.8881 0005711  10.5819 349.5294 15.62691124 36123
MAX VALIER SAT
1 42778U 17036P   18011.81556976  .00000925  00000-0  44829-4 0  9990
2 42778  97.4261  73.9691 0011225 255.0575 104.9418 15.20969517 30739
